DW5435 Weather Reports


time (UTC)temp
C
wind
direction
speed
KPH
gust
KPH
rain 1hr
cm
rain 24hr
cm
rain mn
cm
humidity
%
barometer
mb
20260505224037 -17 0.0 0.0 0.00 0.00 0.00
20260505223517 -17 0.0 0.0 0.00 0.00 0.00
20260505222517 -17 0.0 0.0 0.00 0.00 0.00
20260505221016 -17 0.0 0.0 0.00 0.00 0.00
20260505220016 -17 0.0 0.0 0.00 0.00 0.00
20260505215016 -17 0.0 0.0 0.00 0.00 0.00
20260505213016 25 0.0 0.0 0.00 0.00 0.00 50 1013.4
20260505212017 25 0.0 0.0 0.00 0.00 0.00 49 1013.5
20260505211017 25 0.0 0.0 0.00 0.00 0.00 48 1013.6
20260505210017 25 0.0 0.0 0.00 0.00 0.00 49 1013.8
20260505205017 26 0.0 0.0 0.00 0.00 0.00 48 1013.8
20260505204016 26 0.0 0.0 0.00 0.00 0.00 48 1014.0
20260505203037 26 0.0 0.0 0.00 0.00 0.00 47 1014.1
20260505202016 26 0.0 0.0 0.00 0.00 0.00 47 1014.3
20260505201016 26 0.0 0.0 0.00 0.00 0.00 47 1014.4
20260505200036 26 0.0 0.0 0.00 0.00 0.00 47 1014.6
20260505195016 26 0.0 0.0 0.00 0.00 0.00 48 1014.5
20260505194016 26 0.0 0.0 0.00 0.00 0.00 46 1014.6
20260505193017 26 0.0 0.0 0.00 0.00 0.00 46 1014.9
20260505192016 26 0.0 0.0 0.00 0.00 0.00 46 1014.9
20260505191016 26 0.0 0.0 0.00 0.00 0.00 46 1015.1
20260505190016 27 0.0 0.0 0.00 0.00 0.00 45 1015.4
20260505185016 27 0.0 0.0 0.00 0.00 0.00 45 1015.5
20260505184017 27 0.0 0.0 0.00 0.00 0.00 45 1015.7
20260505183017 27 0.0 0.0 0.00 0.00 0.00 42 1015.9
20260505182017 27 0.0 0.0 0.00 0.00 0.00 43 1016.1
20260505181016 27 0.0 0.0 0.00 0.00 0.00 42 1016.1
20260505180017 27 0.0 0.0 0.00 0.00 0.00 41 1016.4
20260505175016 28 0.0 0.0 0.00 0.00 0.00 39 1016.4
20260505174016 28 0.0 0.0 0.00 0.00 0.00 41 1016.5
20260505173016 28 0.0 0.0 0.00 0.00 0.00 40 1016.5
20260505172016 28 0.0 0.0 0.00 0.00 0.00 42 1016.4
20260505171016 28 0.0 0.0 0.00 0.00 0.00 42 1016.5
20260505170016 27 0.0 0.0 0.00 0.00 0.00 44 1016.8
20260505165016 27 0.0 0.0 0.00 0.00 0.00 44 1016.7
20260505164017 27 0.0 0.0 0.00 0.00 0.00 46 1016.9
20260505163017 26 0.0 0.0 0.00 0.00 0.00 48 1017.1
20260505162056 26 0.0 0.0 0.00 0.00 0.00 49 1017.2
20260505161016 26 0.0 0.0 0.00 0.00 0.00 48 1017.1
20260505153016 23 0.0 0.0 0.00 0.00 0.00 56 1017.3
20260505152057 23 0.0 0.0 0.00 0.00 0.00 58 1017.3
20260505151016 22 0.0 0.0 0.00 0.00 0.00 61 1017.1
20260505125016 11 0.0 0.0 0.00 0.00 0.00 82
20260505124016 11 0.0 0.0 0.00 0.00 0.00 82
20260505123016 11 0.0 0.0 0.00 0.00 0.00 82
20260505122037 11 0.0 0.0 0.00 0.00 0.00 82
20260505121016 11 0.0 0.0 0.00 0.00 0.00 82
20260505120016 10 0.0 0.0 0.00 0.00 0.00 82
20260505115016 10 0.0 0.0 0.00 0.00 0.00 82
20260505114016 10 0.0 0.0 0.00 0.00 0.00 81
20260505113037 10 0.0 0.0 0.00 0.00 0.00 80
20260505112016 11 0.0 0.0 0.00 0.00 0.00 80
20260505111016 11 0.0 0.0 0.00 0.00 0.00 80
20260505102017 11 0.0 0.0 0.00 0.00 0.00 79
20260505101017 11 0.0 0.0 0.00 0.00 0.00 79
20260505100016 11 0.0 0.0 0.00 0.00 0.00 79 1015.4
20260505095016 11 0.0 0.0 0.00 0.00 0.00 79 1015.4
20260505094016 11 0.0 0.0 0.00 0.00 0.00 78 1015.3
20260505093036 11 0.0 0.0 0.00 0.00 0.00 78 1015.4
20260505092016 11 0.0 0.0 0.00 0.00 0.00 78 1015.5
20260505091057 11 0.0 0.0 0.00 0.00 0.00 77 1015.7
20260505090016 11 0.0 0.0 0.00 0.00 0.00 77 1015.6
20260505085056 11 0.0 0.0 0.00 0.00 0.00 77 1015.5
20260505084016 12 0.0 0.0 0.00 0.00 0.00 77 1015.6
20260505083016 12 0.0 0.0 0.00 0.00 0.00 77 1015.8
20260505082016 12 0.0 0.0 0.00 0.00 0.00 75 1015.6
20260505081016 12 0.0 0.0 0.00 0.00 0.00 76 1015.4
20260505080016 12 0.0 0.0 0.00 0.00 0.00 76 1015.4
20260505075016 12 0.0 0.0 0.00 0.00 0.00 75 1015.4
20260505074016 12 0.0 0.0 0.00 0.00 0.00 75 1015.3
20260505073016 12 0.0 0.0 0.00 0.00 0.00 74 1015.4
20260505072017 13 0.0 0.0 0.00 0.00 0.00 74 1015.4
20260505071043 13 0.0 0.0 0.00 0.00 0.00 74 1015.4
20260505070036 13 0.0 0.0 0.00 0.00 0.00 73 1015.4
20260505065016 13 0.0 0.0 0.00 0.00 0.00 72 1015.5
20260505064016 13 0.0 0.0 0.00 0.00 0.00 72 1015.5
20260505063016 13 0.0 0.0 0.00 0.00 0.00 73 1015.6
20260505062016 13 0.0 0.0 0.00 0.00 0.00 73 1015.7
20260505061016 13 0.0 0.0 0.00 0.00 0.00 72 1015.7
20260505060016 14 0.0 0.0 0.00 0.00 0.00 72 1015.7
20260505055016 14 0.0 0.0 0.00 0.00 0.00 73 1015.8
20260505054036 14 0.0 0.0 0.00 0.00 0.00 72 1015.9
20260505053016 15 0.0 0.0 0.00 0.00 0.00 71 1015.9
20260505052016 15 0.0 0.0 0.00 0.00 0.00 71 1015.8
20260505051016 15 0.0 0.0 0.00 0.00 0.00 69 1015.8
20260505041016 16 0.0 0.0 0.00 0.00 0.00 67 1015.9
20260505040016 16 0.0 0.0 0.00 0.00 0.00 66 1015.8
20260505035017 16 0.0 0.0 0.00 0.00 0.00 63 1015.9
20260505034015 16 0.0 0.0 0.00 0.00 0.00 63 1016.0
20260505033015 16 0.0 0.0 0.00 0.00 0.00 62 1015.9
20260505032017 17 0.0 0.0 0.00 0.00 0.00 63 1015.9
20260505031017 17 0.0 0.0 0.00 0.00 0.00 63 1015.9
20260505030015 17 0.0 0.0 0.00 0.00 0.00 64 1015.8
20260505025015 17 0.0 0.0 0.00 0.00 0.00 63 1015.8
20260505024017 17 0.0 0.0 0.00 0.00 0.00 63 1015.7
20260505023017 17 0.0 0.0 0.00 0.00 0.00 61 1015.5
20260505022017 18 0.0 0.0 0.00 0.00 0.00 61 1015.3
20260505021015 18 0.0 0.0 0.00 0.00 0.00 60 1015.2
20260505020017 18 0.0 0.0 0.00 0.00 0.00 61 1015.1
20260505015017 19 0.0 0.0 0.00 0.00 0.00 60 1015.0
20260505014017 19 0.0 0.0 0.00 0.00 0.00 59 1015.0
20260505013015 20 0.0 0.0 0.00 0.00 0.00 58 1014.8
20260505012015 20 0.0 0.0 0.00 0.00 0.00 57 1014.8
20260505011037 20 0.0 0.0 0.00 0.00 0.00 55 1014.7
20260505010037 21 0.0 0.0 0.00 0.00 0.00 54 1014.7
20260505005517 -17 0.0 0.0 0.00 0.00 0.00
20260505004517 -17 0.0 0.0 0.00 0.00 0.00
20260505003017 -17 0.0 0.0 0.00 0.00 0.00
20260505002035 -17 0.0 0.0 0.00 0.00 0.00
20260505001037 -17 0.0 0.0 0.00 0.00 0.00
20260505000517 -17 0.0 0.0 0.00 0.00 0.00
20260504235517 -17 0.0 0.0 0.00 0.00 0.00
20260504234017 -17 0.0 0.0 0.00 0.00 0.00
20260504233017 -17 0.0 0.0 0.00 0.00 0.00
20260504232037 -17 0.0 0.0 0.00 0.00 0.00
20260504230517 -17 0.0 0.0 0.00 0.00 0.00
20260504225517 -17 0.0 0.0 0.00 0.00 0.00
20260504224517 -17 0.0 0.0 0.00 0.00 0.00